Location: Clason Point
(40.8136°N, 73.8618°W)
Time: 12:30:56
(UTC+00:00)

Cosmos 2251 Rocket - Pass Details

Date: 16 September 2019
Orbit: 764 x 792 km, 74.0° (Epoch: 15 October)

Event Time Altitude Azimuth Distance (km) Brightness Sun altitude
Rises 23:29:58 0° 346° (NNW) 3,299 7.1 -5.9°
Reaches altitude 10° 23:32:28 10° 352° (N) 2,366 6.3 -6.3°
Maximum altitude 23:37:39 46° 66° (ENE) 1,053 3.9 -7.3°
Drops below altitude 10° 23:42:47 10° 139° (SE) 2,349 5.6 -8.3°
Enters shadow 23:45:15 - 146° (SE) 3,270 6.3 -8.7°
